Regional Weather Roundup
Issued by NWS Sterling, VA

Home | Current Version | Previous Version | Text Only | Print | Product List | Glossary On
Versions: 1 2 3 4 5 6 7 8 9 10 11 12 13 14 15 16 17 18 19 20 21 22 23 24 25 26 27
000
ASUS41 KLWX 251110
RWRLWX

REGIONAL WEATHER ROUNDUP
NATIONAL WEATHER SERVICE BALTIMORE MD/WASHINGTON DC
700 AM EDT THU AUG 25 2016

Note: "FAIR" indicates few or no clouds below 12,000 feet
with no significant weather and/or obstructions to visibility.
 TC=TEMPERATURE CELSIUS

 * =Non NWS site. Station does not report precipitation (e.g. rain,
    snow, etc.), thunder, or fog.

DCZ001-MDZ009-015-VAZ040>042-051-053>054-251200-
WASHINGTON METRO

CITY           SKY/WX    TMP DP  RH WIND       PRES   REMARKS
WASHINGTON NAT MOCLDY    71  66  84 S10       30.12S
DULLES         CLOUDY    68  63  84 S6        30.12S
ANDREWS AFB    CLEAR     69  65  88 S9        30.12S
FT BELVOIR     PTCLDY    68  65  88 VRB3      30.12S
QUANTICO       MOCLDY    71  65  81 SW8       30.13S
LEESBURG*      CLOUDY    68  66  94 CALM      30.13S
GAITHERSBURG*  CLOUDY    68  61  77 S3        30.16S

$$

MDZ006>007-011-014-251200-
BALTIMORE METRO

CITY           SKY/WX    TMP DP  RH WIND       PRES   REMARKS
BWI AIRPORT    MOCLDY    67  64  90 CALM      30.12S
MD SCIENCE CTR   N/A     70  63  78 MISG      30.13R
MARTIN STATE   PTCLDY    72  70  94 S7        30.14R
ANNAPOLIS      CLEAR     72  67  84 S8        30.12S

$$

MDZ012-015-019>023-251200-
MARYLAND EASTERN SHORE

CITY           SKY/WX    TMP DP  RH WIND       PRES   REMARKS
OCEAN CITY     CLEAR     64  62  93 CALM      30.16F
SALISBURY      CLEAR     64  63  96 CALM      30.15F
EASTON*        PTCLDY    70  70 100 S5        30.18R

$$

MDZ017>025-251200-
SOUTHERN MARYLAND

CITY           SKY/WX    TMP DP  RH WIND       PRES   REMARKS
PATUXENT RIVER MOCLDY    71  67  87 SW10      30.14S
ST INIGOES     CLEAR     73  69  87 S7        30.15R
LEONARDTOWN*   NOT AVBL

$$

MDZ003>005-251200-
NORTH CENTRAL MARYLAND

CITY           SKY/WX    TMP DP  RH WIND       PRES   REMARKS
FREDERICK*     CLEAR     66  66 100 MISG      30.14S
HAGERSTOWN APT PTCLDY    71  64  78 S5        30.10S

$$

MDZ501>502-251200-
WESTERN MARYLAND

CITY           SKY/WX    TMP DP  RH WIND       PRES   REMARKS
OAKLAND*       NOT AVBL
CUMBERLAND*    CLOUDY    66  66 100 CALM      30.13F

$$

VAZ025>031-251200-
SHENANDOAH VALLEY

CITY           SKY/WX    TMP DP  RH WIND       PRES   REMARKS
WINCHESTER*    CLOUDY    72  66  83 SW7       30.10S
FRONT ROYAL*   FAIR      70  66  88 S5        30.11S
LURAY*         FAIR      70  70 100 CALM      30.13F
NEW MARKET*    FAIR     N/A N/A N/A SW3       30.13S
STAUNTON*      CLOUDY    67  65  94 S3        30.18S
WAYNESBORO*    FAIR      67  65  95 CALM      30.17F

$$

WVZ021-048>050-054>055-251200-
EASTERN WEST VIRGINIA PANHANDLE

CITY           SKY/WX    TMP DP  RH WIND       PRES   REMARKS
MARTINSBURG    PTCLDY    66  65  96 CALM      30.09S
PETERSBURG*    CLOUDY    68  66  94 CALM      30.11S

$$

VAZ036>039-050-251200-
CENTRAL FOOTHILLS

CITY           SKY/WX    TMP DP  RH WIND       PRES   REMARKS
CHARLOTTESVILL CLOUDY    70  66  87 S8        30.14R
CULPEPER*      MOCLDY    69  67  92 S3        30.13S
ORANGE*          N/A     68  68 100 S5        30.15S
GORDONSVILLE*  FAIR      68  66  94 SW5       30.14R
WARRENTON*     FAIR      69  62  78 SW5       30.12S

$$

VAZ055>057-251200-
NORTH AND CENTRAL PIEDMONT

CITY           SKY/WX    TMP DP  RH WIND       PRES   REMARKS
FREDERICKSBRG* PTCLDY    68  65  90 S3        30.13S
STAFFORD*      CLOUDY    66  63  89 SE3       30.17S

$$

NCZ024-NYZ072-PAZ021-071-VAZ022-071-251200-
OTHER REGIONAL OBSERVATIONS

CITY           SKY/WX    TMP DP  RH WIND       PRES   REMARKS
NEW YORK CITY    N/A     72  63  73 MISG        N/A
PHILADELPHIA   MOCLDY    69  61  75 S6        30.13F
PITTSBURGH     CLOUDY    72  69  90 W5        30.07R
ROANOKE        CLOUDY    69  67  93 CALM      30.21R
RICHMOND       MOCLDY    66  65  96 S6        30.17R
RALEIGH        MOCLDY    67  64  90 CALM      30.19R

$$

ANZ530>537-251200-
MARINE OBSERVATIONS

STATION/POSITION TIME  TEMP    WIND        PRES
                       AIR SEA DIR/SP/G
                 (UTC) (F)     (DEG/KT/KT) (MB)
THOMAS PT LIGHT  1100   74 81  200/ 15/ 18 1021.4S
BALT KEY BRIDGE  1048   70     190/  6/  7 1020.0R
COVE POINT       1048   72     240/ 12/ 17 1021.2R
LEWISETTA        1048   72 81  240/ 10/ 12 1020.6R
SOLOMONS ISLAND  1048   73 83  220/  9/ 11   N/A
PINEY POINT      1048          260/  6/  9   N/A

$$





USA.gov is the U.S. government's official web portal to all federal, state and local government web resources and services.